Location: Ajisawe
(8.4333°N, 4.3833°E)
Time: 16:43:48
(UTC+00:00)

Vanguard 3 - Visible Passes

Search period start: 11 April 2021 00:00
Search period end: 21 April 2021 00:00
Orbit: 508 x 3262 km, 33.3° (Epoch: 10 April)

Date Brightness Start Highest point End Pass type
(mag) Time Alt. Az. Time Alt. Az. Time Alt. Az.
14 Apr 10.7 20:44:32 10° SSW 20:46:12 13° SSW 20:46:12 13° SSW visible
15 Apr 10.4 19:29:33 10° S 19:35:32 13° SSE 19:36:27 13° SSE visible
16 Apr 10.3 20:25:49 10° SSW 20:31:20 20° S 20:31:20 20° S visible
17 Apr 10.2 19:10:02 10° SSW 19:19:22 18° SSE 19:21:43 17° SE visible
17 Apr 10.6 21:23:48 10° SW 21:26:18 16° SW 21:26:18 16° SW visible
18 Apr 9.9 20:07:19 10° SSW 20:16:46 30° S 20:16:46 30° S visible
19 Apr 10.0 18:51:06 10° SSW 19:03:04 23° SSE 19:07:20 20° SE visible
19 Apr 10.1 21:05:51 10° SW 21:11:56 28° SW 21:11:56 28° SW visible
20 Apr 9.4 19:48:57 10° SW 20:02:36 41° SSE 20:02:36 41° SSE visible
20 Apr 10.8 22:05:41 10° WSW 22:07:13 14° WSW 22:07:13 14° WSW visible
